DW4168 Weather Reports


Display with metric or nautical units.
time (UTC)temp
F
wind
direction
speed
MPH
gust
MPH
rain 1hr
in
rain 24hr
in
rain mn
in
humidity
%
barometer
mb
20260508080027 37 244 0.0 4.0 0.00 0.10 0.08 90 1002.9
20260508074527 37 285 1.0 4.0 0.00 0.10 0.08 90 1002.9
20260508073010 38 263 1.0 4.0 0.00 0.12 0.08 89 1002.9
20260508071514 37 270 0.0 4.0 0.00 0.12 0.08 89 1002.9
20260508070058 37 277 2.0 4.0 0.00 0.12 0.08 89 1002.8
20260508064550 36 240 1.0 4.0 0.00 0.12 0.08 90 1002.8
20260508063033 35 239 3.0 5.0 0.00 0.20 0.08 90 1002.8
20260508061531 36 215 3.0 5.0 0.00 0.20 0.08 89 1003.0
20260508060013 36 248 1.0 4.0 0.00 0.20 0.08 89 1003.1
20260508054516 37 248 1.0 6.0 0.00 0.20 0.08 89 1003.2
20260508053059 36 257 2.0 4.0 0.00 0.26 0.08 89 1003.3
20260508051554 36 222 3.0 5.0 0.00 0.26 0.08 90 1003.4
20260508050035 36 211 2.0 4.0 0.00 0.26 0.08 89 1003.4
20260508044541 36 211 0.0 0.0 0.00 0.26 0.08 89 1003.5
20260508043018 37 211 1.0 4.0 0.00 0.38 0.08 89 1003.4
20260508041515 36 209 2.0 5.0 0.00 0.38 0.08 90 1003.5
20260508040101 37 209 0.0 1.0 0.00 0.38 0.08 89 1003.5
20260508034556 39 209 0.0 4.0 0.00 0.38 0.08 85 1003.5
20260508033035 38 208 2.0 6.0 0.00 0.43 0.08 87 1003.4
20260508031533 39 261 0.0 2.0 0.00 0.43 0.08 85 1003.5
20260508030016 41 261 0.0 6.0 0.00 0.43 0.08 84 1003.6
20260508024513 39 229 0.0 3.0 0.00 0.43 0.08 89 1003.7
20260508023056 39 231 1.0 3.0 0.00 0.48 0.08 90 1003.7
20260508021553 40 230 0.0 0.0 0.00 0.48 0.08 86 1003.8
20260508020037 41 230 1.0 5.0 0.00 0.48 0.08 88 1003.7
20260508014534 41 341 0.0 2.0 0.00 0.48 0.08 91 1003.7
20260508013015 41 341 0.0 0.0 0.00 0.51 0.08 91 1003.6
20260508011519 41 341 0.0 0.0 0.00 0.51 0.08 92 1003.7
20260508010055 41 341 0.0 0.0 0.00 0.51 0.08 90 1003.7
20260508004555 42 341 0.0 0.0 0.00 0.51 0.08 90 1003.6
20260508003032 43 341 0.0 1.0 0.00 0.55 0.08 90 1003.5
20260508001532 44 341 0.0 0.0 0.00 0.55 0.08 89 1003.2
20260508000012 45 341 0.0 1.0 0.00 0.55 0.08 86 1002.9
20260507234518 46 341 0.0 3.0 0.00 0.55 0.08 84 1002.8
20260507233058 47 341 1.0 6.0 0.00 0.61 0.08 82 1002.8
20260507231603 47 343 3.0 7.0 0.00 0.61 0.08 83 1002.7
20260507230100 47 307 3.0 6.0 0.00 0.61 0.08 85 1002.6
20260507224600 48 261 5.0 10.0 0.02 0.61 0.08 85 1002.6
20260507223059 47 230 7.0 11.0 0.04 0.71 0.08 86 1002.5
20260507221554 46 236 7.0 11.0 0.06 0.71 0.08 85 1002.4
20260507220054 45 229 11.0 15.0 0.06 0.71 0.08 85 1002.4
20260507214559 47 267 5.0 9.0 0.03 0.68 0.05 86 1002.6
20260507213036 48 55 2.0 7.0 0.01 0.73 0.03 84 1001.8
20260507211535 49 92 0.0 6.0 0.00 0.72 0.02 79 1001.7
20260507210017 51 184 0.0 2.0 0.00 0.72 0.02 76 1001.6
20260507204516 51 181 2.0 5.0 0.00 0.72 0.02 74 1001.4
20260507203004 52 154 2.0 5.0 0.02 0.79 0.02 73 1001.4
20260507201503 53 182 1.0 4.0 0.02 0.79 0.02 71 1001.4
20260507200001 50 177 1.0 5.0 0.02 0.79 0.02 80 1001.6
20260507194501 47 202 6.0 14.0 0.02 0.79 0.02 83 1001.8
20260507193102 48 227 18.0 28.0 0.00 0.83 0.00 77 1001.8
20260507191558 50 209 7.0 9.0 0.00 0.83 0.00 72 1001.6
20260507190057 51 196 5.0 12.0 0.00 0.83 0.00 70 1001.4
20260507184556 52 274 8.0 19.0 0.00 0.83 0.00 66 1001.5
20260507183043 53 227 5.0 10.0 0.00 0.85 0.00 64 1001.5
20260507181537 56 250 6.0 12.0 0.00 0.85 0.00 62 1001.6
20260507180022 55 337 5.0 9.0 0.00 0.85 0.00 64 1001.8
20260507174518 53 275 4.0 12.0 0.00 0.85 0.00 66 1001.9
20260507171609 54 280 1.0 6.0 0.00 0.86 0.00 65 1002.0
20260507170035 53 331 3.0 11.0 0.00 0.86 0.00 68 1002.0
20260507164536 52 332 1.0 6.0 0.00 0.86 0.00 70 1002.3
20260507163011 53 270 4.0 9.0 0.00 0.87 0.00 73 1002.4
20260507161508 53 226 7.0 11.0 0.00 0.87 0.00 73 1002.5
20260507160049 53 244 5.0 9.0 0.00 0.87 0.00 72 1002.9
20260507154545 51 288 4.0 7.0 0.00 0.87 0.00 79 1002.9
20260507153025 49 242 1.0 3.0 0.00 0.87 0.00 77 1003.0
20260507151536 49 307 1.0 7.0 0.00 0.87 0.00 79 1003.3
20260507150005 48 250 3.0 10.0 0.00 0.87 0.00 83 1003.2
20260507144559 47 289 4.0 7.0 0.00 0.87 0.00 85 1003.4
20260507143044 47 311 2.0 8.0 0.00 0.87 0.00 84 1003.6
20260507141536 46 306 4.0 9.0 0.00 0.87 0.00 87 1003.7
20260507140018 45 271 3.0 6.0 0.00 0.87 0.00 89 1003.7
20260507134526 45 302 4.0 6.0 0.00 0.87 0.00 88 1003.9
20260507133057 45 318 3.0 6.0 0.00 0.87 0.87 87 1003.8
20260507131600 45 325 3.0 7.0 0.00 0.87 0.87 88 1003.6
20260507130034 44 287 3.0 6.0 0.00 0.87 0.87 89 1003.9
20260507124534 44 320 4.0 7.0 0.00 0.87 0.87 90 1003.8
20260507123021 44 302 4.0 7.0 0.00 0.87 0.87 91 1003.7
20260507121519 43 331 3.0 8.0 0.00 0.87 0.87 92 1003.8
20260507120018 43 317 2.0 7.0 0.00 0.87 0.87 92 1003.8
20260507114525 43 344 5.0 8.0 0.00 0.87 0.87 92 1003.8
20260507113018 43 333 4.0 7.0 0.00 0.88 0.87 93 1003.5
20260507111521 42 292 3.0 7.0 0.00 0.88 0.87 94 1003.5
20260507110015 42 335 7.0 12.0 0.00 0.88 0.87 93 1003.2
20260507104513 42 315 4.0 10.0 0.00 0.88 0.87 94 1003.4
20260507103112 42 291 5.0 8.0 0.01 0.93 0.87 94 1003.6
20260507101558 42 316 4.0 9.0 0.01 0.93 0.87 94 1003.3
20260507100054 42 329 4.0 7.0 0.01 0.93 0.87 94 1003.1
20260507094534 42 329 4.0 7.0 0.02 0.93 0.87 94 1002.8
20260507093034 42 329 6.0 10.0 0.01 0.96 0.86 94 1002.8
20260507091515 42 331 5.0 8.0 0.01 0.96 0.86 94 1002.9
20260507090014 42 342 5.0 9.0 0.01 0.96 0.86 94 1002.8
20260507084557 42 331 7.0 13.0 0.00 0.95 0.85 94 1002.7
20260507083053 43 333 4.0 9.0 0.00 1.01 0.85 95 1002.6
20260507081534 43 321 5.0 9.0 0.00 1.01 0.85 94 1002.5